This is the latest recevied weather packets stored in our database for station/object VK6HGR-1. If no packets are shown the sender has not sent any weather packets the latest 10 day(s).
| Time | Temp. | Humidity | Pressure | Rain* | Wind** | Luminosity | Snow |
|---|---|---|---|---|---|---|---|
| 1787382011 | 21.11° C | 65% | 1013 hPa | - | - | - | - |
| 1787381112 | 21.11° C | 65% | 1013.2 hPa | - | - | - | - |
| 1787380212 | 21.11° C | 66% | 1013.2 hPa | - | - | - | - |
| 1787379310 | 21.11° C | 65% | 1013.3 hPa | - | - | - | - |
| 1787378410 | 21.11° C | 65% | 1013.2 hPa | - | - | - | - |
| 1787377512 | 21.11° C | 64% | 1013.4 hPa | - | - | - | - |
| 1787376611 | 20.56° C | 64% | 1013.5 hPa | - | - | - | - |
| 1787375714 | 20.56° C | 64% | 1013.7 hPa | - | - | - | - |
| 1787374811 | 20.56° C | 64% | 1013.8 hPa | - | - | - | - |
| 1787373917 | 20° C | 65% | 1014 hPa | - | - | - | - |
| 1787373011 | 19.44° C | 67% | 1014.3 hPa | - | - | - | - |
| 1787372110 | 19.44° C | 68% | 1014.8 hPa | - | - | - | - |
| 1787371210 | 18.89° C | 68% | 1015 hPa | - | - | - | - |
| 1787370310 | 18.89° C | 68% | 1015.3 hPa | - | - | - | - |
| 1787369411 | 18.89° C | 67% | 1015.5 hPa | - | - | - | - |
| 1787368512 | 18.33° C | 67% | 1015.8 hPa | - | - | - | - |
| 1787367614 | 18.33° C | 67% | 1016 hPa | - | - | - | - |
| 1787366715 | 18.33° C | 68% | 1016 hPa | - | - | - | - |
| 1787365811 | 17.78° C | 68% | 1016.2 hPa | - | - | - | - |
| 1787364912 | 17.78° C | 67% | 1016.3 hPa | - | - | - | - |
| 1787364012 | 17.78° C | 64% | 1016.5 hPa | - | - | - | - |
| 1787363111 | 17.22° C | 62% | 1016.6 hPa | - | - | - | - |
| 1787362210 | 17.22° C | 60% | 1016.7 hPa | - | - | - | - |
| 1787361311 | 17.22° C | 59% | 1016.9 hPa | - | - | - | - |
| 1787360410 | 17.22° C | 59% | 1016.9 hPa | - | - | - | - |
* Rain since midnight (hover to see other rain measurements)
** Current wind speed in m/s (hover to see current wind gust speed)